Tracking 19570 objects as of 21-Feb-2019
HD Live streaming from Space Station
objects crossing your sky now

ESSA 8 (TOS-F)

Track ESSA 8 (TOS-F) now!
10-day predictions
ESSA 8 (TOS-F) is classified as:


NORAD ID: 3615
Int'l Code: 1968-114A
Perigee: 1,420.9 km
Apogee: 1,470.7 km
Inclination: 101.3 °
Period: 114.6 minutes
Semi major axis: 7816 km
RCS: 0.8417 m2 (medium)
Launch date: December 15, 1968
Source: United States (US)
Launch site: AIR FORCE WESTERN TEST RANGE (AFWTR)
aabbcc
Your satellite tracking list
Your tracking list is empty




NASA's NSSDC Master Catalog

Two Line Element Set (TLE):
1  3615U 68114A   19051.93374288 -.00000051 +00000-0 -52765-4 0  9992
2  3615 101.3090 032.0657 0031840 157.5651 256.8790 12.56202141300880
Source of the keplerian elements: AFSPC